EW5206 Weather Reports


Display with metric or nautical units.
time (UTC)temp
F
wind
direction
speed
MPH
gust
MPH
rain 1hr
in
rain 24hr
in
rain mn
in
humidity
%
barometer
mb
20260902160116 96 0.0 0.0 0.00 0.00 0.00 48 1018.6
20260902154600 96 0.0 0.0 0.00 0.00 0.00 47 1018.7
20260902153057 95 0.0 0.0 0.00 0.00 0.00 49 1018.8
20260902151556 95 0.0 0.0 0.00 0.00 0.00 51 1018.9
20260902150047 93 0.0 0.0 0.00 0.00 0.00 53 1018.9
20260902144543 92 0.0 0.0 0.00 0.00 0.00 55 1018.8
20260902143043 91 0.0 0.0 0.00 0.00 0.00 59 1018.6
20260902141535 89 0.0 0.0 0.00 0.00 0.00 62 1018.6
20260902140036 87 0.0 0.0 0.00 0.00 0.00 64 1018.6
20260902134526 85 0.0 0.0 0.00 0.00 0.00 68 1018.5
20260902133023 82 0.0 0.0 0.00 0.00 0.00 72 1018.6
20260902131518 79 0.0 0.0 0.00 0.00 0.00 77 1018.6
20260902130013 76 0.0 0.0 0.00 0.00 0.00 82 1018.7
20260902124511 74 0.0 0.0 0.00 0.00 0.00 87 1018.7
20260902123021 71 0.0 0.0 0.00 0.00 0.00 93 1018.6
20260902121509 68 0.0 0.0 0.00 0.00 0.00 95 1018.6
20260902120008 68 0.0 0.0 0.00 0.00 0.00 95 1018.7
20260902114511 67 0.0 0.0 0.00 0.00 0.00 95 1018.6
20260902113006 67 0.0 0.0 0.00 0.00 0.00 95 1018.6
20260902111514 67 0.0 0.0 0.00 0.00 0.00 94 1018.5
20260902110008 67 0.0 0.0 0.00 0.00 0.00 93 1018.3
20260902104501 68 0.0 0.0 0.00 0.00 0.00 93 1018.3
20260902103100 68 0.0 0.0 0.00 0.00 0.00 93 1018.2
20260902101559 68 0.0 0.0 0.00 0.00 0.00 93 1018.1
20260902100059 68 0.0 0.0 0.00 0.00 0.00 93 1018.0
20260902094558 68 0.0 0.0 0.00 0.00 0.00 93 1018.1
20260902093159 68 0.0 0.0 0.00 0.00 0.00 93 1018.1
20260902091600 68 0.0 0.0 0.00 0.00 0.00 93 1018.1
20260902090055 68 0.0 0.0 0.00 0.00 0.00 92 1018.0
20260902084557 69 0.0 0.0 0.00 0.00 0.00 91 1018.0
20260902083102 69 0.0 0.0 0.00 0.00 0.00 91 1017.9
20260902081551 69 0.0 0.0 0.00 0.00 0.00 90 1017.8
20260902080106 70 0.0 0.0 0.00 0.00 0.00 89 1017.8
20260902074549 69 0.0 0.0 0.00 0.00 0.00 90 1017.8
20260902073047 70 0.0 0.0 0.00 0.00 0.00 88 1018.0
20260902071546 70 0.0 0.0 0.00 0.00 0.00 88 1018.1
20260902070044 70 0.0 0.0 0.00 0.00 0.00 88 1017.9
20260902064543 71 0.0 0.0 0.00 0.00 0.00 87 1017.9
20260902063042 71 0.0 0.0 0.00 0.00 0.00 86 1018.2
20260902061604 72 0.0 0.0 0.00 0.00 0.00 85 1018.1
20260902060037 73 0.0 0.0 0.00 0.00 0.00 84 1018.1
20260902054544 73 0.0 0.0 0.00 0.00 0.00 83 1017.9
20260902053031 73 0.0 0.0 0.00 0.00 0.00 83 1017.7
20260902051529 73 0.0 0.0 0.00 0.00 0.00 82 1017.5
20260902050029 73 0.0 0.0 0.00 0.00 0.00 82 1017.4
20260902044528 73 0.0 0.0 0.00 0.00 0.00 81 1017.5
20260902043025 73 0.0 0.0 0.00 0.00 0.00 80 1017.5
20260902041523 74 0.0 0.0 0.00 0.00 0.00 77 1017.5
20260902040021 74 0.0 0.0 0.00 0.00 0.00 77 1017.5
20260902034520 75 0.0 0.0 0.00 0.00 0.00 76 1017.5
20260902033019 75 0.0 0.0 0.00 0.00 0.00 77 1017.6
20260902031518 75 0.0 0.0 0.00 0.00 0.00 76 1017.8
20260902030018 76 0.0 0.0 0.00 0.00 0.00 75 1017.7
20260902024518 76 0.0 0.0 0.00 0.00 0.00 75 1017.5
20260902023017 76 0.0 0.0 0.00 0.00 0.00 75 1017.3
20260902021519 77 0.0 0.0 0.00 0.00 0.00 74 1017.4
20260902020017 77 0.0 0.0 0.00 0.00 0.00 74 1017.4
20260902014527 77 0.0 0.0 0.00 0.00 0.00 73 1017.2
20260902013016 77 0.0 0.0 0.00 0.00 0.00 72 1017.2
20260902011516 78 0.0 0.0 0.00 0.00 0.00 72 1017.0
20260902010016 78 0.0 0.0 0.00 0.00 0.00 72 1016.8
20260902004515 78 0.0 0.0 0.00 0.00 0.00 71 1016.5
20260902003014 79 0.0 0.0 0.00 0.00 0.00 69 1016.4
20260902001514 80 0.0 0.0 0.00 0.00 0.00 67 1016.3
20260902000023 81 0.0 0.0 0.00 0.00 0.00 66 1016.2
20260901234512 82 0.0 0.0 0.00 0.00 0.00 64 1016.3
20260901233012 83 0.0 0.0 0.00 0.00 0.00 62 1016.4
20260901231511 83 0.0 0.0 0.00 0.00 0.00 60 1016.6
20260901230027 84 0.0 0.0 0.00 0.00 0.00 59 1016.7
20260901224511 85 0.0 0.0 0.00 0.00 0.00 59 1016.7
20260901223009 85 0.0 0.0 0.00 0.00 0.00 57 1016.7
20260901221509 86 0.0 0.0 0.00 0.00 0.00 56 1016.5
20260901220009 86 0.0 0.0 0.00 0.00 0.00 56 1016.6
20260901214506 86 0.0 0.0 0.00 0.00 0.00 56 1016.7
20260901213014 86 0.0 0.0 0.00 0.00 0.00 55 1016.9
20260901211504 86 0.0 0.0 0.00 0.00 0.00 57 1016.9
20260901210009 87 0.0 0.0 0.00 0.00 0.00 56 1017.0
20260901204503 87 0.0 0.0 0.00 0.00 0.00 56 1017.1
20260901203005 87 0.0 0.0 0.00 0.00 0.00 56 1017.2
20260901201502 88 0.0 0.0 0.00 0.00 0.00 56 1017.1
20260901200100 88 0.0 0.0 0.00 0.00 0.00 54 1017.1
20260901194559 88 0.0 0.0 0.00 0.00 0.00 53 1017.3
20260901193102 88 0.0 0.0 0.00 0.00 0.00 53 1017.4
20260901191600 88 0.0 0.0 0.00 0.00 0.00 56 1017.5
20260901190055 88 0.0 0.0 0.00 0.00 0.00 54 1017.7
20260901184554 88 0.0 0.0 0.00 0.00 0.00 54 1017.9
20260901183054 89 0.0 0.0 0.00 0.00 0.00 52 1017.9
20260901181553 89 0.0 0.0 0.00 0.00 0.00 52 1017.9
20260901180053 89 0.0 0.0 0.00 0.00 0.00 53 1017.9
20260901174552 89 0.0 0.0 0.00 0.00 0.00 52 1018.1
20260901173052 90 0.0 0.0 0.00 0.00 0.00 53 1018.1
20260901171559 91 0.0 0.0 0.00 0.00 0.00 50 1018.0
20260901170051 90 0.0 0.0 0.00 0.00 0.00 54 1018.1
20260901164548 93 0.0 0.0 0.00 0.00 0.00 49 1018.3
20260901163045 93 0.0 0.0 0.00 0.00 0.00 52 1018.4
20260901161544 92 0.0 0.0 0.00 0.00 0.00 53 1018.5